Portland Hillsboro, OR

2:28 PM PDT on May 23, 2017 (GMT -0700)
Portland-Hillsboro

Weather History for KHIO - February, 2014

Change the Weather History Date:

Tuesday, February 11, 2014

  Actual Average Record
Temperature  
Mean Temperature 40 °F 42 °F  
Max Temperature 46 °F 50 °F 66 °F (1963)
Min Temperature 34 °F 34 °F 18 °F (1982)
Degree Days  
Heating Degree Days 25 23  
Month to date heating degree days 372 253  
Since 1 July heating degree days 3335 3146  
Cooling Degree Days 0 0  
Month to date cooling degree days 0 0  
Year to date cooling degree days 0 0  
Moisture  
Dew Point 37 °F    
Average Humidity 93    
Maximum Humidity 100    
Minimum Humidity 86    
Precipitation  
Precipitation 0.43 in 0.17 in 0.76 in (1943)
Month to date precipitation 0.85 2.06  
Year to date precipitation 3.26 8.12  
Snow  
Snow 0.00 in - - ()
Month to date snowfall 0.0  
Since 1 July snowfall 0.0  
Snow Depth 0.00 in    
Sea Level Pressure  
Sea Level Pressure 30.06 in    
Wind  
Wind Speed 5 mph (South)    
Max Wind Speed 21 mph    
Max Gust Speed 31 mph    
Visibility 2 miles    
Events Fog , Rain    
T = Trace of Precipitation, MM = Missing Value Source: NWS Daily Summary

Daily Weather History Graph

Daily Weather History Graph

Search for Another Location

Airport or City:

Trip Planner

Search our weather history database for the weather conditions in past years. The results will help you decide how hot, cold, wet, or windy it might be!

Date:

Astronomy

Feb. 11, 2014 Rise Set
Actual Time 7:19 AM PST 5:33 PM PST
Civil Twilight 6:48 AM PST 6:04 PM PST
Nautical Twilight 6:13 AM PST 6:38 PM PST
Astronomical Twilight 5:39 AM PST 7:13 PM PST
Moon 2:54 PM PST (2/11) 5:04 AM PST (2/11)
Length of Visible Light 11h 15m
Length of Day
10h 13m
Waxing Gibbous, 91% of the Moon is Illuminated
Feb 11
Waxing Gibbous
Feb 14
Full
Feb 22
Last Quarter
Mar 1
New
Mar 8
First Quarter

Hourly Weather History & Observations

Time (PST) Temp. Windchill Dew Point Humidity Pressure Visibility Wind Dir Wind Speed Gust Speed Precip Events Conditions
12:01 AM 34.0 °F - 34.0 °F 100% 30.15 in 0.8 mi Calm Calm - 0.00 in Rain Light Rain
12:10 AM 34.0 °F 31.0 °F 33.1 °F 96% 30.15 in 1.0 mi NW 3.5 mph - 0.01 in Rain Light Rain
12:32 AM 34.0 °F - 34.0 °F 100% 30.15 in 0.8 mi Calm Calm - 0.01 in   Mist
12:53 AM 35.1 °F - 34.0 °F 96% 30.16 in 0.8 mi Calm Calm - 0.01 in Rain Light Rain
1:34 AM 35.1 °F - 35.1 °F 100% 30.15 in 0.5 mi Calm Calm - 0.02 in Fog , Rain Light Rain
1:53 AM 36.0 °F 30.3 °F 35.1 °F 97% 30.16 in 0.5 mi NW 6.9 mph - 0.02 in Fog Fog
2:24 AM 36.0 °F - 35.1 °F 97% 30.16 in 0.5 mi Calm Calm - N/A Fog Fog
2:53 AM 36.0 °F - 36.0 °F 100% 30.17 in 0.5 mi Calm Calm - N/A Fog Fog
3:08 AM 36.0 °F - 35.1 °F 97% 30.15 in 0.2 mi Calm Calm - N/A Fog Fog
3:53 AM 34.0 °F - 34.0 °F 100% 30.16 in 0.2 mi Calm Calm - 0.00 in Fog Fog
4:53 AM 34.0 °F - 34.0 °F 100% 30.17 in 0.2 mi Calm Calm - N/A Fog Fog
5:53 AM 35.1 °F - 34.0 °F 96% 30.17 in 0.2 mi Calm Calm - N/A Fog Fog
6:53 AM 35.1 °F - 34.0 °F 96% 30.16 in 0.2 mi Calm Calm - N/A Fog Fog
7:53 AM 34.0 °F - 34.0 °F 100% 30.16 in 0.2 mi Calm Calm - N/A Fog Fog
8:53 AM 35.1 °F - 35.1 °F 100% 30.17 in 0.2 mi Calm Calm - 0.00 in Fog , Rain Light Rain
9:53 AM 36.0 °F - 35.1 °F 97% 30.18 in 0.2 mi Calm Calm - 0.00 in Fog , Rain Light Rain
10:53 AM 36.0 °F - 36.0 °F 100% 30.17 in 0.2 mi Calm Calm - 0.02 in Fog , Rain Light Rain
11:53 AM 37.9 °F - 37.0 °F 97% 30.14 in 0.2 mi Calm Calm - 0.04 in Fog , Rain Light Rain
12:53 PM 37.9 °F - 37.0 °F 97% 30.10 in 0.2 mi Calm Calm - 0.01 in Fog Fog
1:53 PM 37.0 °F 34.5 °F 37.0 °F 100% 30.08 in 0.2 mi NW 3.5 mph - 0.00 in Fog , Rain Light Rain
2:53 PM 39.0 °F 36.8 °F 37.9 °F 96% 30.05 in 0.2 mi North 3.5 mph - 0.01 in Fog , Rain Light Rain
3:42 PM 39.9 °F 36.7 °F 39.0 °F 97% 30.02 in 1.0 mi SSE 4.6 mph - 0.01 in   Overcast
3:53 PM 41.0 °F 37.1 °F 39.9 °F 96% 30.03 in 1.0 mi SSE 5.8 mph - 0.01 in   Overcast
3:58 PM 41.0 °F 37.1 °F 39.9 °F 96% 30.01 in 3.0 mi South 5.8 mph - N/A   Overcast
4:53 PM 42.1 °F 37.7 °F 41.0 °F 96% 29.99 in 4.0 mi SSE 6.9 mph - 0.00 in Rain Light Rain
5:53 PM 43.0 °F 39.5 °F 42.1 °F 97% 29.97 in 6.0 mi SSE 5.8 mph - 0.02 in Rain Light Rain
6:53 PM 43.0 °F 36.8 °F 42.1 °F 97% 29.93 in 6.0 mi South 11.5 mph - 0.02 in Rain Light Rain
7:53 PM 45.0 °F 39.3 °F 43.0 °F 93% 29.89 in 8.0 mi South 11.5 mph - 0.07 in Rain Light Rain
8:53 PM 46.0 °F 38.5 °F 43.0 °F 89% 29.85 in 6.0 mi South 19.6 mph 31.1 mph 0.09 in Rain Light Rain
9:51 PM 44.6 °F 38.4 °F 42.8 °F 93% 29.79 in 7.0 mi South 12.7 mph - 0.02 in Rain Light Rain
9:53 PM 44.1 °F 37.7 °F 42.1 °F 93% 29.80 in 7.0 mi SSE 12.7 mph - 0.02 in Rain Light Rain
10:53 PM 44.1 °F 37.7 °F 42.1 °F 93% 29.78 in 5.0 mi SSE 12.7 mph - 0.07 in Rain Light Rain
11:53 PM 46.0 °F 39.3 °F 43.0 °F 89% 29.73 in 5.0 mi South 16.1 mph - 0.02 in Rain Light Rain